Orbital Elements at Epoch 2459200.5 (2020-Dec-17.0) TDB
Reference: JPL 21 (heliocentric ecliptic J2000)
Element | Value | Uncertainty (1-sigma) | Units |
e | .1440849025373833 | 4.5639e-08 | |
a | 3.029158872532714 | 1.9784e-08 | au |
q | 2.592702811613588 | 1.4284e-07 | au |
i | 1.97483999527689 | 5.2461e-06 | deg |
node | 342.629967164484 | 0.00013233 | deg |
peri | 148.8954645792359 | 0.00013401 | deg |
M | 353.3713601191063 | 1.9204e-05 | deg |
tp | 2459235.957117703731 (2021-Jan-21.45711770) | 0.00010278 | TDB |
period | 1925.668402975923 5.27 | 1.8865e-05 5.165e-08 | d yr |
n | .1869480744678871 | 1.8315e-09 | deg/d |
Q | 3.465614933451841 | 2.2634e-08 | au |
|
| | Orbit Determination Parameters
Additional Information
|